Vorticity
53 26 -11 46 6 33 19 -7 -5 7 7 7 10 10 7 -0 10 4 2 2 5 3 7 -0 12 -2 11 14 20 17 14 7 11 16 13 9 8 10 10 7 8 19 7 43 17 7 20 10 21 8 15 4 -3 4
75 -15 8 16 15 8 33 21 -7 14 21 4 4 16 6 5 7 0 1 2 8 2 1 -4 6 4 15 16 17 23 8 7 8 7 8 11 8 7 -2 11 8 17 -5 -2 3 31 -0 8 10 9 14 18 20 15
43 27 22 24 -1 14 14 5 -5 6 15 25 9 9 6 9 4 3 4 3 5 -6 8 11 4 10 15 11 15 17 13 7 8 5 5 10 6 4 10 14 2 18 13 6 -7 23 -5 4 1 7 6 -5 10 3
55 10 31 11 -7 11 5 8 -19 4 0 17 9 10 10 4 3 2 4 4 3 -1 18 2 14 19 23 6 15 14 7 7 5 10 6 6 11 15 3 -12 -6 0 5 -0 29 -4 7 15 1 5 17 12 -8 13
44 -6 15 42 -0 11 -7 19 13 2 -1 17 9 8 10 4 7 5 4 7 4 -4 -7 14 17 28 2 7 14 16 15 7 7 11 4 8 15 21 20 21 23 23 30 23 19 12 30 -23 7 8 10 5 6 8
37 -29 37 26 21 9 -3 3 15 3 5 -7 22 8 6 9 5 5 6 0 -4 -2 14 21 7 22 6 14 8 12 11 9 9 7 5 23 13 10 17 -4 12 28 22 25 3 9 13 21 12 11 5 6 7 10
23 -2 53 27 -9 3 30 2 38 -5 -2 1 37 11 9 7 6 4 -2 17 2 -2 18 32 23 6 10 9 6 8 11 12 10 12 18 10 11 18 9 13 8 5 14 16 20 25 -4 10 8 0 0 5 10 12
-2 6 27 18 -10 -12 3 29 -10 7 30 1 18 7 7 7 6 9 3 -3 -4 -2 31 19 10 15 11 2 6 8 13 15 15 14 2 10 19 25 -4 -6 25 16 27 26 15 25 18 10 5 7 6 8 11 15
7 52 3 12 -1 7 2 29 14 7 2 5 30 5 8 5 8 2 0 -1 1 16 13 15 5 19 16 4 4 11 18 15 16 10 12 14 22 3 2 16 21 38 23 29 16 12 25 11 15 6 5 5 8 12
35 18 6 6 -14 -1 30 17 10 2 1 29 6 6 5 6 6 -1 17 7 19 30 29 12 8 19 12 10 10 11 14 11 11 7 10 20 11 -19 8 14 25 30 31 41 21 13 8 18 12 3 5 4 1 11
17 11 3 -6 -8 8 30 18 1 3 10 10 4 4 4 8 3 -6 12 16 16 14 16 10 6 9 8 12 15 12 7 12 13 7 14 13 1 -12 10 22 21 22 22 23 7 5 15 24 8 8 7 6 6 5
19 14 -8 -7 1 16 18 11 4 6 15 11 0 7 11 -3 6 12 17 18 15 8 16 7 7 6 11 18 17 14 11 13 9 1 21 10 -14 2 8 19 19 17 17 14 11 11 2 15 22 21 6 5 -1 13
11 8 -5 5 29 19 22 33 11 22 21 8 4 6 -3 7 11 1 19 16 11 14 9 8 7 7 8 12 14 14 11 11 7 19 10 -1 -10 11 7 16 19 23 20 16 14 3 13 22 23 25 27 25 10 1
10 6 26 12 8 27 11 3 30 12 4 -4 -15 27 -3 16 17 6 -1 19 6 14 14 10 5 6 9 18 10 11 13 9 12 11 7 -10 12 12 9 13 20 19 23 17 5 6 7 8 9 10 9 5 8 11
13 -13 16 30 15 12 16 8 -7 7 -6 -18 2 17 11 10 -4 25 19 6 7 10 12 5 6 9 10 6 14 9 11 14 11 9 2 9 9 11 11 14 17 21 24 17 16 11 8 13 18 20 20 21 23 25
-4 39 35 22 16 14 18 28 -0 8 -14 -0 -0 11 24 7 4 15 11 3 9 10 10 0 7 14 10 11 14 5 9 11 14 2 -2 -1 4 5 9 9 18 14 18 24 27 29 29 19 14 12 12 10 9 7
48 29 9 18 7 6 10 11 1 -5 5 -13 29 6 4 19 17 10 9 8 11 9 2 2 13 10 14 9 13 8 4 4 4 -1 1 2 -1 6 8 9 6 21 12 8 9 12 15 9 8 7 8 9 10 11
39 5 6 6 10 7 7 2 -6 -3 -7 5 17 12 -4 19 20 8 6 10 11 6 7 -5 2 4 -4 8 2 5 4 5 8 6 -0 -1 10 15 12 12 9 10 21 13 5 5 18 5 2 6 6 7 9 11
9 -2 11 9 8 5 7 -2 -35 14 26 8 6 6 17 5 1 9 11 9 9 5 5 8 2 19 30 29 18 11 3 3 6 12 20 20 12 8 13 15 13 9 9 6 5 5 6 8 9 5 8 8 7 11
22 12 23 -7 7 -8 -39 54 8 -9 23 22 14 21 20 15 12 8 8 8 9 7 6 -1 8 14 -7 -12 -8 0 4 14 7 2 12 11 8 6 6 5 4 7 12 15 16 13 8 6 7 10 6 10 10 8
15 9 6 4 9 -0 -22 22 12 12 24 4 7 4 2 6 7 9 10 11 8 4 6 15 16 14 15 13 11 9 6 6 5 7 11 14 11 11 12 14 13 10 9 7 5 4 4 8 10 14 12 3 3 5
-2 1 8 11 16 6 7 21 5 25 5 27 11 7 10 13 14 14 13 10 8 19 20 15 11 9 10 11 11 10 11 13 16 17 17 16 14 13 13 14 15 17 18 18 17 17 14 10 7 8 9 11 17 11
10 3 8 3 -6 7 29 19 13 8 15 20 13 7 13 12 16 15 9 13 11 4 6 7 10 12 12 12 15 16 18 23 23 19 21 15 13 13 15 15 15 15 16 17 16 15 16 17 18 13 13 13 11 10
23 17 -0 -3 18 18 21 12 5 -5 12 11 5 -3 9 5 5 6 4 19 9 13 15 15 18 19 23 23 22 20 18 19 20 25 20 14 13 14 20 19 10 7 8 9 14 21 24 22 20 20 19 17 17 17
-11 -4 14 7 14 15 16 13 13 7 7 10 8 -4 10 12 7 1 11 16 16 22 20 24 25 28 23 24 26 28 29 24 28 24 18 19 17 5 3 2 2 3 4 8 9 8 7 5 5 8 11 13 14 14
3 16 8 26 7 9 5 17 11 3 9 14 14 10 10 5 14 9 6 9 19 14 13 18 23 15 10 7 8 10 12 12 11 8 4 2 1 1 3 3 4 4 5 5 5 6 7 6 8 8 8 9 10 11
5 15 7 11 11 19 18 10 13 18 11 13 12 17 17 11 16 12 11 18 18 8 6 3 0 3 1 1 3 4 4 4 4 4 3 3 4 6 6 7 8 9 8 8 8 8 8 7 7 9 9 8 7 8
18 13 22 22 6 6 10 16 15 19 17 12 13 6 10 5 16 8 8 16 17 8 2 7 5 3 3 3 3 4 4 5 5 6 6 6 6 7 9 9 10 10 10 10 10 11 10 10 9 7 7 8 7 6
1 9 13 10 12 9 8 11 7 15 11 10 16 19 9 9 7 9 6 19 18 17 15 11 13 9 5 5 6 7 6 7 8 9 10 11 11 12 11 10 10 9 9 9 10 11 11 11 12 12 13 13 10 8
16 13 11 14 12 9 9 9 13 11 10 9 7 8 9 12 15 19 10 12 4 2 4 6 7 8 6 5 6 9 8 8 9 11 13 13 12 12 12 11 11 11 13 14 14 13 14 14 14 15 16 16 14 14
1 9 13 11 9 7 10 10 9 10 11 15 15 18 18 17 12 9 6 3 6 8 6 5 5 6 9 9 6 5 11 12 12 11 13 13 11 8 10 15 18 19 19 18 17 16 16 15 15 16 17 16 17 15
21 9 7 10 11 10 9 11 21 24 23 25 17 13 15 13 9 8 6 8 7 6 10 11 10 5 5 8 14 15 12 11 16 12 7 10 16 20 18 16 15 14 16 16 17 18 17 19 22 22 20 15 15 17
6 12 14 9 8 18 27 21 14 12 11 11 8 6 6 7 4 3 5 4 9 11 11 5 6 13 14 11 9 13 14 12 16 19 18 14 12 14 15 15 15 15 16 20 22 24 25 24 23 22 23 23 18 21
Height
2881 2887 2897 2908 2917 2929 2940 2953 2962 2971 2981 2992 3000 3008 3014 3021 3029 3033 3037 3039 3040 3040 3039 3038 3036 3033 3030 3027 3025 3023 3022 3019 3018 3017 3017 3017 3016 3014 3012 3011 3011 3013 3012 3011 3015 3014 3015 3012 3013 3016 3016 3015 3015 3015
2876 2880 2893 2898 2908 2919 2936 2949 2958 2966 2976 2985 2994 3003 3010 3017 3023 3029 3032 3034 3035 3036 3036 3034 3032 3030 3027 3024 3021 3020 3019 3017 3017 3017 3016 3015 3014 3013 3012 3012 3010 3011 3010 3009 3011 3012 3010 3010 3011 3011 3012 3012 3012 3012
2870 2876 2887 2893 2904 2913 2928 2945 2955 2962 2971 2978 2990 2999 3006 3012 3018 3024 3028 3030 3031 3031 3030 3030 3028 3026 3022 3020 3019 3019 3016 3015 3015 3016 3015 3014 3013 3011 3012 3009 3005 3004 3005 3005 3006 3007 3008 3008 3009 3009 3009 3010 3010 3010
2865 2874 2883 2889 2901 2914 2924 2941 2951 2959 2966 2973 2985 2994 3001 3008 3014 3020 3024 3025 3027 3027 3026 3026 3023 3021 3018 3016 3015 3014 3014 3013 3013 3012 3012 3011 3011 3008 3007 3005 3003 3006 3001 3000 2999 3001 3003 3006 3004 3004 3005 3006 3007 3007
2859 2871 2877 2886 2900 2912 2923 2939 2948 2956 2963 2970 2979 2989 2997 3004 3010 3015 3019 3021 3022 3025 3022 3020 3018 3016 3014 3013 3012 3011 3010 3010 3010 3009 3007 3006 3005 3004 3001 2997 2994 2994 2994 2997 2997 2996 2995 2997 3000 3001 3002 3003 3003 3003
2855 2865 2873 2882 2894 2910 2921 2934 2943 2952 2959 2967 2973 2983 2993 3000 3005 3011 3014 3018 3019 3018 3018 3016 3014 3012 3012 3011 3010 3009 3007 3006 3007 3005 3003 3002 3002 3001 2998 2994 2992 2990 2988 2987 2987 2984 2989 2993 2996 2997 2999 2999 3000 3000
2853 2861 2870 2880 2893 2906 2919 2931 2940 2947 2956 2964 2971 2978 2989 2996 3002 3007 3011 3014 3013 3013 3013 3011 3009 3010 3009 3008 3007 3005 3004 3004 3003 3001 2998 2999 2998 2998 2993 2989 2987 2983 2980 2979 2978 2980 2986 2988 2990 2993 2995 2996 2997 2998
2849 2858 2867 2879 2893 2905 2918 2929 2936 2944 2952 2960 2967 2976 2986 2992 2999 3003 3007 3008 3008 3009 3009 3007 3006 3007 3006 3006 3005 3003 3001 3000 2999 2998 2997 2996 2994 2993 2989 2984 2980 2976 2971 2971 2974 2976 2980 2983 2987 2989 2992 2993 2994 2995
2846 2856 2866 2879 2891 2904 2915 2925 2932 2941 2948 2956 2965 2976 2985 2990 2995 2999 3001 3002 3003 3008 3004 3003 3003 3005 3004 3004 3002 3001 2998 2996 2997 2996 2995 2994 2992 2990 2986 2979 2974 2968 2966 2965 2968 2975 2978 2980 2983 2986 2988 2990 2990 2991
2844 2853 2867 2880 2892 2903 2913 2921 2929 2936 2945 2953 2964 2975 2980 2986 2991 2995 2996 2997 2997 2996 2996 2998 2999 2999 3002 3000 2999 2999 2996 2994 2994 2995 2993 2990 2989 2988 2983 2978 2971 2966 2964 2963 2968 2973 2977 2978 2980 2983 2984 2986 2987 2988
2842 2853 2868 2881 2891 2902 2910 2918 2926 2933 2940 2948 2959 2969 2977 2982 2988 2991 2993 2993 2991 2991 2992 2994 2995 2996 2997 2997 2996 2997 2995 2994 2993 2994 2992 2989 2987 2985 2980 2975 2971 2967 2967 2968 2970 2972 2974 2976 2978 2980 2981 2983 2984 2985
2841 2855 2870 2880 2890 2899 2907 2917 2923 2930 2938 2948 2960 2969 2976 2982 2985 2989 2987 2986 2985 2987 2987 2990 2991 2992 2993 2993 2994 2994 2994 2994 2993 2992 2990 2986 2986 2982 2978 2974 2971 2969 2968 2969 2971 2972 2972 2973 2975 2975 2976 2978 2979 2980
2843 2857 2869 2879 2888 2897 2907 2915 2921 2932 2937 2949 2961 2970 2976 2979 2980 2981 2979 2978 2979 2980 2983 2987 2988 2990 2990 2992 2992 2992 2992 2993 2992 2990 2987 2985 2983 2980 2976 2973 2970 2968 2967 2968 2969 2971 2971 2970 2970 2971 2972 2973 2975 2975
2847 2859 2869 2879 2889 2896 2904 2914 2923 2929 2941 2952 2959 2965 2969 2969 2970 2971 2974 2975 2977 2978 2982 2985 2986 2987 2987 2988 2989 2989 2991 2992 2991 2988 2985 2983 2981 2978 2975 2971 2968 2966 2965 2965 2966 2966 2967 2967 2968 2968 2969 2970 2970 2969
2849 2859 2869 2881 2889 2898 2906 2912 2922 2932 2940 2948 2956 2959 2961 2962 2965 2968 2971 2973 2975 2977 2980 2982 2984 2985 2984 2986 2987 2987 2988 2988 2986 2984 2983 2981 2979 2977 2974 2971 2967 2965 2964 2963 2963 2964 2964 2964 2964 2964 2964 2965 2965 2965
2850 2861 2872 2881 2890 2898 2907 2915 2923 2932 2939 2945 2949 2952 2955 2958 2962 2965 2967 2971 2974 2976 2978 2980 2980 2980 2981 2982 2983 2983 2985 2982 2981 2981 2980 2979 2978 2976 2973 2971 2968 2966 2963 2962 2961 2961 2962 2962 2962 2963 2962 2963 2963 2963
2853 2863 2871 2882 2890 2897 2906 2917 2926 2932 2940 2943 2946 2949 2953 2955 2960 2963 2966 2969 2972 2974 2976 2978 2976 2976 2978 2978 2979 2979 2979 2979 2978 2977 2977 2976 2976 2974 2972 2971 2968 2967 2965 2964 2963 2963 2963 2962 2962 2962 2962 2961 2961 2960
2858 2866 2876 2882 2890 2900 2911 2920 2927 2933 2936 2939 2943 2947 2951 2954 2957 2960 2963 2966 2969 2970 2972 2974 2973 2972 2973 2972 2973 2976 2976 2975 2974 2973 2973 2972 2971 2970 2969 2968 2967 2966 2965 2964 2964 2963 2962 2961 2962 2962 2961 2960 2959 2958
2858 2867 2878 2887 2898 2908 2918 2924 2927 2930 2934 2938 2942 2946 2950 2952 2955 2958 2960 2963 2965 2966 2969 2969 2969 2966 2967 2968 2970 2970 2970 2970 2969 2968 2967 2967 2966 2966 2966 2965 2964 2964 2964 2963 2962 2962 2961 2961 2960 2959 2959 2958 2957 2955
2868 2877 2887 2898 2905 2911 2918 2922 2928 2931 2932 2936 2940 2944 2946 2949 2952 2954 2956 2959 2961 2962 2963 2962 2962 2963 2965 2964 2964 2965 2965 2964 2963 2962 2962 2962 2962 2962 2962 2962 2962 2961 2960 2959 2959 2958 2958 2957 2956 2955 2955 2954 2953 2953
2881 2889 2896 2902 2909 2916 2918 2921 2926 2930 2932 2935 2938 2942 2945 2947 2949 2952 2954 2955 2956 2954 2956 2958 2958 2958 2958 2957 2957 2957 2957 2957 2956 2956 2956 2956 2956 2956 2955 2956 2956 2956 2956 2955 2954 2954 2953 2953 2952 2951 2950 2950 2949 2948
2889 2895 2901 2906 2911 2915 2918 2922 2926 2929 2932 2933 2937 2940 2943 2945 2947 2949 2950 2949 2949 2951 2951 2952 2951 2950 2949 2949 2949 2949 2949 2948 2948 2949 2949 2949 2950 2950 2950 2950 2949 2949 2949 2948 2947 2947 2947 2947 2947 2946 2945 2944 2944 2943
2894 2898 2903 2906 2911 2916 2921 2923 2926 2928 2931 2933 2936 2939 2941 2943 2944 2945 2945 2944 2946 2947 2946 2945 2945 2944 2943 2942 2942 2942 2941 2941 2940 2941 2942 2943 2943 2943 2944 2945 2945 2944 2943 2942 2942 2941 2940 2940 2939 2939 2939 2938 2937 2936
2895 2898 2902 2907 2911 2914 2918 2921 2924 2927 2929 2932 2934 2936 2938 2940 2941 2940 2940 2941 2942 2941 2939 2938 2938 2936 2936 2936 2935 2935 2935 2935 2935 2936 2937 2938 2938 2939 2940 2940 2940 2940 2939 2938 2937 2936 2935 2934 2933 2932 2931 2931 2930 2929
2898 2903 2906 2907 2909 2913 2916 2919 2922 2925 2927 2929 2932 2934 2935 2937 2937 2937 2937 2938 2936 2935 2934 2933 2932 2931 2932 2932 2931 2932 2931 2932 2932 2934 2934 2935 2936 2935 2936 2937 2937 2936 2935 2934 2933 2933 2932 2930 2928 2927 2926 2925 2924 2923
2897 2900 2903 2904 2907 2912 2915 2918 2921 2923 2925 2927 2929 2931 2932 2933 2934 2933 2932 2932 2931 2932 2932 2932 2931 2931 2931 2932 2932 2933 2933 2933 2934 2936 2936 2935 2935 2934 2933 2934 2934 2934 2931 2929 2928 2927 2926 2924 2923 2922 2921 2920 2919 2918
2895 2897 2900 2904 2907 2910 2913 2916 2918 2919 2921 2923 2925 2927 2929 2930 2929 2929 2928 2927 2928 2929 2930 2931 2931 2932 2932 2932 2933 2933 2932 2932 2934 2935 2933 2932 2931 2929 2928 2927 2926 2926 2924 2923 2921 2920 2919 2918 2916 2915 2915 2914 2913 2912
2893 2896 2900 2904 2907 2909 2910 2912 2914 2916 2917 2919 2920 2922 2924 2925 2925 2925 2924 2924 2925 2926 2927 2928 2929 2930 2930 2930 2930 2929 2929 2928 2928 2928 2928 2926 2925 2922 2920 2917 2916 2915 2914 2913 2912 2911 2909 2908 2907 2907 2906 2906 2905 2904
2893 2897 2900 2902 2905 2906 2908 2910 2911 2912 2914 2915 2917 2919 2920 2920 2920 2920 2921 2921 2921 2922 2923 2924 2926 2926 2925 2925 2924 2924 2923 2923 2922 2920 2919 2918 2916 2913 2909 2907 2904 2902 2901 2900 2899 2898 2897 2896 2895 2894 2895 2894 2894 2894
2893 2896 2899 2901 2902 2904 2906 2908 2909 2910 2911 2912 2913 2914 2915 2915 2916 2917 2917 2918 2919 2920 2921 2922 2922 2921 2920 2919 2918 2917 2916 2915 2913 2911 2908 2907 2904 2902 2899 2896 2893 2890 2888 2885 2884 2883 2881 2880 2880 2879 2880 2881 2880 2881
2890 2893 2896 2898 2900 2902 2904 2905 2905 2906 2907 2908 2909 2910 2910 2911 2912 2913 2914 2916 2917 2917 2917 2916 2915 2915 2914 2912 2911 2910 2909 2906 2903 2900 2897 2894 2891 2889 2886 2883 2880 2877 2874 2872 2870 2869 2867 2866 2865 2865 2866 2867 2867 2868
2888 2891 2894 2895 2897 2899 2900 2901 2902 2903 2903 2904 2905 2906 2907 2908 2909 2911 2912 2913 2913 2913 2912 2911 2910 2908 2907 2905 2903 2901 2898 2896 2892 2889 2886 2882 2878 2875 2871 2868 2865 2861 2859 2857 2855 2853 2852 2851 2851 2851 2852 2853 2854 2856
2886 2888 2891 2893 2895 2896 2897 2899 2899 2900 2901 2902 2903 2904 2905 2906 2906 2908 2908 2908 2907 2907 2906 2905 2903 2901 2899 2897 2894 2892 2889 2886 2882 2877 2873 2869 2865 2862 2858 2854 2850 2846 2843 2840 2838 2837 2836 2835 2836 2837 2838 2840 2842 2845